EN

Hourly Weather Trebižat

Today, 23 April, Friday

Time Temperature Precipitation Wind Pressure Humidity
00:00 +9°C° 0.6 mm 2 mps 745 mmHg 92%
01:00 +9°C° 0 mm 2 mps 745 mmHg 92%
02:00 +9°C° 0.1 mm 2 mps 745 mmHg 91%
03:00 +9°C° 0.1 mm 2 mps 745 mmHg 90%
04:00 +9°C° 0.1 mm 2 mps 745 mmHg 89%
05:00 +9°C° 0 mm 2 mps 745 mmHg 87%
06:00 +10°C° 0 mm 2 mps 745 mmHg 85%
07:00 +10°C° 0 mm 2 mps 745 mmHg 83%
08:00 +12°C° 0 mm 2 mps 746 mmHg 82%
09:00 +12°C° 0 mm 2 mps 746 mmHg 81%
10:00 +12°C° 0 mm 2 mps 746 mmHg 80%
11:00 +13°C° 0 mm 2 mps 746 mmHg 76%
12:00 +14°C° 0 mm 2 mps 746 mmHg 73%
13:00 +14°C° 0 mm 2 mps 746 mmHg 69%
14:00 +14°C° 0 mm 2 mps 746 mmHg 69%
15:00 +14°C° 0 mm 2 mps 746 mmHg 69%
16:00 +14°C° 0 mm 2 mps 746 mmHg 68%
17:00 +13°C° 0 mm 2 mps 746 mmHg 72%
18:00 +12°C° 0 mm 1 mps 747 mmHg 76%
19:00 +11°C° 0 mm 1 mps 747 mmHg 80%
20:00 +10°C° 0 mm 1 mps 747 mmHg 79%
21:00 +10°C° 0 mm 1 mps 747 mmHg 79%
22:00 +8°C° 0 mm 2 mps 747 mmHg 79%
23:00 +8°C° 0 mm 2 mps 747 mmHg 79%

Tomorrow, 24 April, Saturday

Time Temperature Precipitation Wind Pressure Humidity
00:00 +7°C° 0 mm 2 mps 747 mmHg 80%
01:00 +7°C° 0 mm 3 mps 747 mmHg 80%
02:00 +5°C° 0 mm 3 mps 746 mmHg 79%
03:00 +5°C° 0 mm 3 mps 746 mmHg 79%
04:00 +5°C° 0 mm 3 mps 746 mmHg 79%
05:00 +7°C° 0 mm 3 mps 746 mmHg 74%
06:00 +8°C° 0 mm 3 mps 746 mmHg 70%
07:00 +9°C° 0 mm 3 mps 746 mmHg 66%
08:00 +11°C° 0 mm 3 mps 746 mmHg 58%
09:00 +13°C° 0 mm 4 mps 746 mmHg 50%
10:00 +15°C° 0 mm 4 mps 745 mmHg 42%
11:00 +17°C° 0 mm 4 mps 745 mmHg 41%
12:00 +18°C° 0 mm 4 mps 745 mmHg 40%
13:00 +18°C° 0 mm 3 mps 745 mmHg 38%
14:00 +18°C° 0 mm 3 mps 744 mmHg 39%
15:00 +18°C° 0 mm 3 mps 744 mmHg 41%
16:00 +18°C° 0 mm 2 mps 744 mmHg 42%
17:00 +16°C° 0 mm 2 mps 744 mmHg 50%
18:00 +14°C° 0 mm 2 mps 744 mmHg 58%
19:00 +12°C° 0 mm 1 mps 744 mmHg 67%
20:00 +12°C° 0 mm 1 mps 745 mmHg 68%
21:00 +10°C° 0 mm 2 mps 745 mmHg 69%
22:00 +9°C° 0 mm 2 mps 745 mmHg 70%
23:00 +9°C° 0 mm 2 mps 745 mmHg 71%

Day after tomorrow, 25 April, Sunday

Time Temperature Precipitation Wind Pressure Humidity
00:00 +8°C° 0 mm 2 mps 745 mmHg 72%
01:00 +8°C° 0 mm 2 mps 745 mmHg 73%
02:00 +7°C° 0 mm 2 mps 744 mmHg 74%
03:00 +7°C° 0 mm 2 mps 744 mmHg 74%
04:00 +7°C° 0 mm 2 mps 744 mmHg 75%
05:00 +8°C° 0 mm 2 mps 744 mmHg 71%
06:00 +9°C° 0 mm 2 mps 744 mmHg 67%
07:00 +10°C° 0 mm 2 mps 744 mmHg 63%
08:00 +14°C° 0 mm 1 mps 744 mmHg 56%
09:00 +16°C° 0 mm 1 mps 744 mmHg 49%
10:00 +19°C° 0 mm 1 mps 744 mmHg 42%
11:00 +20°C° 0 mm 1 mps 744 mmHg 40%
12:00 +21°C° 0 mm 1 mps 743 mmHg 38%
13:00 +20°C° 0 mm 2 mps 743 mmHg 36%
14:00 +20°C° 0 mm 2 mps 743 mmHg 40%
15:00 +19°C° 0 mm 2 mps 743 mmHg 43%
16:00 +19°C° 0 mm 2 mps 743 mmHg 46%
17:00 +17°C° 0 mm 2 mps 743 mmHg 54%
18:00 +15°C° 0 mm 1 mps 743 mmHg 62%
19:00 +13°C° 0 mm 1 mps 743 mmHg 70%
20:00 +13°C° 0 mm 1 mps 744 mmHg 70%
21:00 +12°C° 0 mm 1 mps 744 mmHg 69%
22:00 +12°C° 0 mm 1 mps 744 mmHg 69%
23:00 +10°C° 0 mm 2 mps 744 mmHg 69%

26 April, Monday

Time Temperature Precipitation Wind Pressure Humidity
00:00 +10°C° 0 mm 2 mps 744 mmHg 70%
01:00 +10°C° 0 mm 2 mps 744 mmHg 70%
02:00 +9°C° 0 mm 2 mps 744 mmHg 70%
03:00 +9°C° 0 mm 2 mps 744 mmHg 70%
04:00 +9°C° 0 mm 2 mps 743 mmHg 71%
05:00 +10°C° 0 mm 2 mps 743 mmHg 68%
06:00 +12°C° 0 mm 1 mps 743 mmHg 65%
07:00 +14°C° 0 mm 1 mps 744 mmHg 62%
08:00 +15°C° 0 mm 1 mps 744 mmHg 57%
09:00 +17°C° 0 mm 2 mps 744 mmHg 53%
10:00 +19°C° 0 mm 2 mps 744 mmHg 49%
11:00 +19°C° 0 mm 2 mps 743 mmHg 49%
12:00 +19°C° 0 mm 3 mps 743 mmHg 49%
13:00 +19°C° 0 mm 4 mps 743 mmHg 49%
14:00 +19°C° 0 mm 3 mps 743 mmHg 52%
15:00 +18°C° 0 mm 2 mps 743 mmHg 54%
16:00 +17°C° 0 mm 2 mps 742 mmHg 57%
17:00 +15°C° 0.4 mm 2 mps 743 mmHg 65%
18:00 +14°C° 0.4 mm 2 mps 743 mmHg 73%
19:00 +12°C° 0.4 mm 2 mps 743 mmHg 81%
20:00 +12°C° 0 mm 2 mps 743 mmHg 81%
21:00 +12°C° 0 mm 2 mps 743 mmHg 81%
22:00 +12°C° 0 mm 2 mps 742 mmHg 81%
23:00 +12°C° 0 mm 2 mps 742 mmHg 80%

27 April, Tuesday

Time Temperature Precipitation Wind Pressure Humidity
00:00 +12°C° 0 mm 2 mps 742 mmHg 79%
01:00 +12°C° 0 mm 2 mps 741 mmHg 78%
02:00 +12°C° 0.1 mm 2 mps 741 mmHg 79%
03:00 +12°C° 0.1 mm 2 mps 740 mmHg 81%
04:00 +12°C° 0.1 mm 2 mps 740 mmHg 83%
05:00 +12°C° 0 mm 2 mps 740 mmHg 80%
06:00 +12°C° 0 mm 3 mps 740 mmHg 77%
07:00 +13°C° 0 mm 3 mps 739 mmHg 74%
08:00 +14°C° 0 mm 4 mps 739 mmHg 68%
09:00 +15°C° 0 mm 5 mps 739 mmHg 63%
10:00 +16°C° 0 mm 6 mps 739 mmHg 57%
11:00 +16°C° 0 mm 6 mps 738 mmHg 57%
12:00 +16°C° 0 mm 7 mps 738 mmHg 57%
13:00 +16°C° 0 mm 7 mps 738 mmHg 57%
14:00 +15°C° 0.7 mm 6 mps 738 mmHg 65%
15:00 +14°C° 0.7 mm 5 mps 738 mmHg 72%
16:00 +12°C° 0.7 mm 4 mps 738 mmHg 80%
17:00 +12°C° 0.2 mm 4 mps 738 mmHg 79%
18:00 +12°C° 0.2 mm 3 mps 737 mmHg 79%
19:00 +11°C° 0.2 mm 3 mps 737 mmHg 79%
20:00 +11°C° 0 mm 3 mps 737 mmHg 79%
21:00 +11°C° 0 mm 3 mps 737 mmHg 79%
22:00 +12°C° 0 mm 3 mps 737 mmHg 78%
23:00 +12°C° 0.1 mm 3 mps 737 mmHg 81%

28 April, Wednesday

Time Temperature Precipitation Wind Pressure Humidity
00:00 +12°C° 0.1 mm 3 mps 737 mmHg 83%
01:00 +13°C° 0.1 mm 2 mps 737 mmHg 85%
02:00 +13°C° 0.1 mm 2 mps 737 mmHg 87%
03:00 +13°C° 0.1 mm 2 mps 736 mmHg 89%
04:00 +14°C° 0.1 mm 2 mps 736 mmHg 91%
05:00 +14°C° 0.2 mm 2 mps 737 mmHg 91%
06:00 +14°C° 0.2 mm 2 mps 737 mmHg 92%
07:00 +14°C° 0.2 mm 2 mps 737 mmHg 92%
08:00 +14°C° 0.2 mm 3 mps 737 mmHg 90%
09:00 +16°C° 0.2 mm 3 mps 737 mmHg 88%
10:00 +17°C° 0.2 mm 3 mps 738 mmHg 87%
11:00 +17°C° 0.4 mm 4 mps 738 mmHg 85%
12:00 +18°C° 0.4 mm 4 mps 738 mmHg 83%
13:00 +18°C° 0.4 mm 4 mps 738 mmHg 82%
14:00 +18°C° 0.3 mm 4 mps 738 mmHg 79%
15:00 +19°C° 0.3 mm 4 mps 738 mmHg 76%
16:00 +19°C° 0.3 mm 3 mps 738 mmHg 73%
17:00 +18°C° 0.1 mm 3 mps 738 mmHg 77%
18:00 +17°C° 0.1 mm 2 mps 738 mmHg 81%
19:00 +16°C° 0.1 mm 2 mps 738 mmHg 84%
20:00 +16°C° 0.1 mm 2 mps 738 mmHg 85%
21:00 +16°C° 0.1 mm 2 mps 738 mmHg 86%
22:00 +16°C° 0.1 mm 2 mps 739 mmHg 86%
23:00 +15°C° 0.1 mm 2 mps 739 mmHg 87%
Show more

We Need Your Consent

Meteoprog and our Service Providers may store and access personal data such as cookies, device identifiers or other similar technologies on your device and process such data to personalise content and ads, as well as provide social media features and to analyse the traffic.

  • Store and/or access information on your device

    Cookies, device identifiers or other information can be stored or accessed on your device for the purposes indicated above.

  • Personalised ads and content, ad and content measurement, audience insights, and products development

    Ads and content can be personalised based on a profile. More data can be added to better personalise ads and content. Ad and content performance can be measured. Insights about the audience who saw the ads and content can be derived. Such data can be used to develop or improve user’s experience, systems and software.

By clicking ‘I Agree’ you will allow the use of indicated cookies, device identifiers, web beacons or other similar technologies. Your settings can be changed in the browser on your device.

For certain purposes, legitimate interests may be relied on, rather than consent. You can read more about this in our Privacy and Cookie Policy.